Date String (YYYY-MM-DD hh:mm:ss) UTC,Instrument flags,absolute air pressure of the measurement (hPa),sample flow rate (lpm),inlet stack bypass flow (lpm),air temperature of the measurement (°C),ambient temperature measured by the external sensor (°C),aerosol sample conditioner tube jacket temperature (°C),OPC LED temperature (°C),internal box temperature (°C),relative humidity of the measurement (%),span deviation,mass concentration of particles derived from Lorenz-Mie calculation of OPC scattering (μg/m³),mass concentration of particles derived from Lorenz-Mie calculation of OPC scattering (μg/m³),mass concentration of particles derived from Lorenz-Mie calculation of OPC scattering (μg/m³)
DateTimeUTC,F1_M11,P_M11,Q1_M11,Q2_M11,T1_M11,T2_M11,T3_M11,T4_M11,T5_M11,U1_M11,ZSPAN_M11,X0_M11,X2_M11,X1_M11
2024-01-01 01:00:00,SystemResetWarning,0831.6,5.00,000.00,024.8,023.9,000.0,033.1,026.2,12.0,0000.0,0012.42,0006.05,0005.44
2024-01-01 01:01:00,SystemResetWarning,0831.6,4.99,000.00,024.8,023.9,000.0,033.1,026.2,12.0,0000.0,0012.36,0006.04,0005.43
2024-01-01 01:02:00,SystemResetWarning,0831.6,5.00,000.00,024.8,023.9,000.0,033.1,026.2,12.0,0000.0,0012.86,0006.06,0005.42
2024-01-01 01:03:00,SystemResetWarning,0831.6,5.00,000.00,024.8,023.9,000.0,033.1,026.2,12.0,0000.0,0014.23,0005.99,0005.39
2024-01-01 01:04:00,SystemResetWarning,0831.6,5.01,000.00,024.8,023.9,000.0,033.1,026.2,12.0,0000.0,0014.72,0005.97,0005.36
2024-01-01 01:05:00,SystemResetWarning,0831.6,5.01,000.00,024.8,023.9,000.0,033.1,026.2,12.0,0000.0,0014.74,0005.93,0005.32
2024-01-01 01:06:00,SystemResetWarning,0831.6,5.00,000.00,024.8,023.9,000.0,033.1,026.2,12.0,0000.0,0014.97,0005.87,0005.28
2024-01-01 01:07:00,SystemResetWarning,0831.6,5.00,000.00,024.8,023.9,000.0,033.1,026.2,12.0,0000.0,0015.65,0005.81,0005.21
2024-01-01 01:08:00,SystemResetWarning,0831.6,5.00,000.00,024.8,023.9,000.0,033.1,026.2,12.0,0000.0,0015.29,0005.74,0005.15
2024-01-01 01:09:00,SystemResetWarning,0831.6,4.99,000.00,024.8,023.9,000.0,033.1,026.2,12.1,0000.0,0015.18,0005.69,0005.10
2024-01-01 01:10:00,SystemResetWarning,0831.6,4.99,000.00,024.8,023.8,000.0,033.1,026.2,12.0,0000.0,0015.31,0005.66,0005.05
2024-01-01 01:11:00,SystemResetWarning,0831.6,5.00,000.00,024.8,023.8,000.0,033.1,026.1,12.1,0000.0,0015.04,0005.64,0005.00
2024-01-01 01:12:00,SystemResetWarning,0831.6,5.01,000.00,024.8,023.8,000.0,033.1,026.2,12.0,0000.0,0014.98,0005.60,0004.97
2024-01-01 01:13:00,SystemResetWarning,0831.7,5.01,000.00,024.8,023.8,000.0,033.1,026.1,12.0,0000.0,0014.32,0005.51,0004.93
2024-01-01 01:14:00,SystemResetWarning,0831.6,4.99,000.00,024.8,023.8,000.0,033.1,026.1,12.0,0000.0,0014.76,0005.49,0004.91
2024-01-01 01:15:00,SystemResetWarning,0831.6,4.99,000.00,024.8,023.8,000.0,033.1,026.1,12.0,0000.0,0014.22,0005.46,0004.88
2024-01-01 01:16:00,SystemResetWarning,0831.6,5.01,000.00,024.8,023.8,000.0,033.1,026.1,12.0,0000.0,0014.18,0005.42,0004.85
2024-01-01 01:17:00,SystemResetWarning,0831.6,5.01,000.00,024.8,023.8,000.0,033.1,026.1,12.0,0000.0,0014.14,0005.39,0004.83
2024-01-01 01:18:00,SystemResetWarning,0831.7,4.98,000.00,024.8,023.8,000.0,033.1,026.1,12.0,0000.0,0013.75,0005.40,0004.83
2024-01-01 01:19:00,SystemResetWarning,0831.7,5.00,000.00,024.8,023.8,000.0,033.1,026.1,12.0,0000.0,0012.58,0005.42,0004.85
2024-01-01 01:20:00,SystemResetWarning,0831.7,5.02,000.00,024.8,023.8,000.0,033.1,026.1,12.0,0000.0,0012.92,0005.44,0004.87
2024-01-01 01:21:00,SystemResetWarning,0831.7,5.00,000.00,024.8,023.8,000.0,033.1,026.1,12.0,0000.0,0012.35,0005.45,0004.88
2024-01-01 01:22:00,SystemResetWarning,0831.7,4.99,000.00,024.8,023.8,000.0,033.1,026.1,12.0,0000.0,0012.31,0005.43,0004.89
2024-01-01 01:23:00,SystemResetWarning,0831.7,5.00,000.00,024.8,023.8,000.0,033.1,026.1,12.0,0000.0,0012.25,0005.43,0004.88
2024-01-01 01:24:00,SystemResetWarning,0831.7,5.01,000.00,024.8,023.8,000.0,033.1,026.1,12.0,0000.0,0013.03,0005.46,0004.87
2024-01-01 01:25:00,SystemResetWarning,0831.7,5.01,000.00,024.8,023.8,000.0,033.1,026.1,12.0,0000.0,0012.26,0005.45,0004.86
2024-01-01 01:26:00,SystemResetWarning,0831.7,4.99,000.00,024.7,023.8,000.0,033.1,026.1,12.0,0000.0,0011.16,0005.42,0004.86
2024-01-01 01:27:00,SystemResetWarning,0831.7,4.99,000.00,024.7,023.8,000.0,033.1,026.1,12.0,0000.0,0011.25,0005.40,0004.86
2024-01-01 01:28:00,SystemResetWarning,0831.7,5.01,000.00,024.7,023.8,000.0,033.1,026.1,12.0,0000.0,0011.61,0005.36,0004.84
2024-01-01 01:29:00,SystemResetWarning,0831.9,5.01,000.00,024.7,023.8,000.0,033.1,026.1,12.0,0000.0,0011.41,0005.37,0004.83
2024-01-01 01:30:00,SystemResetWarning,0832.3,5.00,000.00,024.7,023.8,000.0,033.1,026.1,12.1,0000.0,0011.58,0005.35,0004.80
2024-01-01 01:31:00,SystemResetWarning,0832.1,5.00,000.00,024.7,023.8,000.0,033.1,026.1,12.1,0000.0,0011.02,0005.31,0004.79
2024-01-01 01:32:00,SystemResetWarning,0832.1,4.99,000.00,024.7,023.8,000.0,033.1,026.1,12.1,0000.0,0011.28,0005.28,0004.77
2024-01-01 01:33:00,SystemResetWarning,0832.2,5.00,000.00,024.7,023.8,000.0,033.1,026.1,12.1,0000.0,0011.45,0005.26,0004.75
2024-01-01 01:34:00,SystemResetWarning,0832.2,5.00,000.00,024.7,023.8,000.0,033.1,026.1,12.1,0000.0,0011.95,0005.23,0004.75
2024-01-01 01:35:00,SystemResetWarning,0832.3,5.00,000.00,024.7,023.8,000.0,033.0,026.1,12.1,0000.0,0011.74,0005.20,0004.75
2024-01-01 01:36:00,SystemResetWarning,0832.0,5.00,000.00,024.7,023.8,000.0,033.0,026.1,12.1,0000.0,0012.02,0005.20,0004.75
2024-01-01 01:37:00,SystemResetWarning,0832.3,5.00,000.00,024.7,023.8,000.0,033.0,026.1,12.1,0000.0,0012.39,0005.23,0004.75
2024-01-01 01:38:00,SystemResetWarning,0832.2,5.00,000.00,024.7,023.8,000.0,033.0,026.1,12.1,0000.0,0013.14,0005.32,0004.77
2024-01-01 01:39:00,SystemResetWarning,0832.1,5.00,000.00,024.7,023.8,000.0,033.0,026.0,12.1,0000.0,0012.86,0005.37,0004.80
2024-01-01 01:40:00,SystemResetWarning,0832.1,5.00,000.00,024.7,023.8,000.0,033.0,026.0,12.1,0000.0,0012.61,0005.37,0004.81
2024-01-01 01:41:00,SystemResetWarning,0832.1,5.01,000.00,024.7,023.8,000.0,033.0,026.1,12.1,0000.0,0012.62,0005.38,0004.83
2024-01-01 01:42:00,SystemResetWarning,0832.1,5.00,000.00,024.7,023.8,000.0,033.0,026.0,12.1,0000.0,0013.13,0005.43,0004.83
2024-01-01 01:43:00,SystemResetWarning,0831.9,4.99,000.00,024.7,023.8,000.0,033.0,026.0,12.1,0000.0,0013.14,0005.44,0004.85
2024-01-01 01:44:00,SystemResetWarning,0832.0,5.00,000.00,024.7,023.8,000.0,033.0,026.0,12.1,0000.0,0013.15,0005.50,0004.87
2024-01-01 01:45:00,SystemResetWarning,0831.7,5.01,000.00,024.6,023.8,000.0,033.0,026.0,12.1,0000.0,0013.58,0005.58,0004.89
2024-01-01 01:46:00,SystemResetWarning,0831.7,5.00,000.00,024.6,023.8,000.0,033.0,026.0,12.1,0000.0,0013.87,0005.64,0004.92
2024-01-01 01:47:00,SystemResetWarning,0831.9,4.98,000.00,024.6,023.8,000.0,033.0,026.0,12.1,0000.0,0013.33,0005.65,0004.93
2024-01-01 01:48:00,SystemResetWarning,0832.1,4.99,000.00,024.6,023.8,000.0,033.0,026.0,12.1,0000.0,0012.98,0005.65,0004.95
2024-01-01 01:49:00,SystemResetWarning,0831.7,5.01,000.00,024.6,023.7,000.0,033.0,026.0,12.1,0000.0,0012.17,0005.60,0004.95
2024-01-01 01:50:00,SystemResetWarning,0831.7,5.01,000.00,024.6,023.7,000.0,033.0,026.0,12.1,0000.0,0012.28,0005.60,0004.94
2024-01-01 01:51:00,SystemResetWarning,0831.7,5.00,000.00,024.6,023.7,000.0,033.0,026.0,12.1,0000.0,0012.56,0005.58,0004.92
2024-01-01 01:52:00,SystemResetWarning,0831.7,5.00,000.00,024.6,023.7,000.0,033.0,026.0,12.2,0000.0,0012.69,0005.59,0004.90
2024-01-01 01:53:00,SystemResetWarning,0831.7,5.00,000.00,024.6,023.6,000.0,032.9,026.0,12.2,0000.0,0011.95,0005.56,0004.89
2024-01-01 01:54:00,SystemResetWarning,0831.7,4.99,000.00,024.6,023.6,000.0,032.9,026.0,12.2,0000.0,0011.81,0005.54,0004.88
2024-01-01 01:55:00,SystemResetWarning,0832.0,5.01,000.00,024.6,023.6,000.0,032.9,025.9,12.2,0000.0,0011.78,0005.50,0004.85
2024-01-01 01:56:00,SystemResetWarning,0831.7,5.01,000.00,024.6,023.6,000.0,032.9,025.9,12.2,0000.0,0012.47,0005.46,0004.83
2024-01-01 01:57:00,SystemResetWarning,0832.0,5.01,000.00,024.6,023.6,000.0,032.9,025.9,12.2,0000.0,0011.52,0005.38,0004.81
2024-01-01 01:58:00,SystemResetWarning,0832.3,5.00,000.00,024.6,023.6,000.0,032.9,025.9,12.2,0000.0,0011.17,0005.31,0004.79
2024-01-01 01:59:00,SystemResetWarning,0832.3,4.99,000.00,024.6,023.5,000.0,032.9,025.9,12.2,0000.0,0011.04,0005.28,0004.77
